Flag for Slovakia Weather past 2 weeks in Bratislava, Slovakia

Now
45 °F

Light rain. Partly sunny.


Feels Like: 40 °F
Forecast: 44 / 54 °F
Wind: 8 mph from West

Location: Bratislava Ivanka

Current Time: Mar 29, 2015 at 9:49:09 AM

Latest Report: Mar 29, 2015 at 9:30 AM


Visibility: N/A

Pressure: 29.92 "Hg

Humidity: 66%

Dew point: 34 °F

Location of BratislavaLocation

Historic Weather in Bratislava — Graph

°F

Bratislava temperature yesterday

Maximum temperature yesterday: 52 °F (at 2:30 PM)
Minimum temperature yesterday: 41 °F (at 10:30 PM)
Average temperature yesterday: 47 °F

Past Weeks' High & Low Weather Summary

 TemperatureHumidityPressure
High63 °F (Mar 26, 3:00 PM)100% (Mar 15, 3:30 AM)30.54 "Hg (Mar 15, 3:30 AM)
Low30 °F (Mar 21, 3:00 AM)28% (Mar 19, 2:00 PM)29.74 "Hg (Mar 25, 4:30 PM)
Average46 °F66%30.13 "Hg
* Reported Mar 14 7:00 AM — Mar 29 8:30 AM, Bratislava, Weather by CustomWeather, © 2015

Note: Actual official high and low records may vary slightly from our data, if they occured in-between our weather recording intervals... More about our weather records

Advertising

Bratislava weather history for previous 24 hours

 ConditionsComfort  
Time TempWeatherWind HumidityBarometerVisibility
8:30 AM
Sun, Mar 29
43 °FLight rain. Partly sunny.5 mph76%29.92 "HgN/A
8:00 AM43 °FPartly sunny.5 mph76%29.92 "HgN/A
7:30 AM41 °FPassing clouds.3 mph76%29.92 "HgN/A
7:00 AM39 °FClear.5 mph75%29.92 "Hg10 mi
6:30 AM39 °FClear.3 mph75%29.92 "Hg10 mi
6:00 AM37 °FClear.1 mph81%29.92 "Hg10 mi
5:30 AM39 °FClear.5 mph75%29.92 "Hg10 mi
5:00 AM39 °FClear.5 mph75%29.95 "Hg10 mi
4:30 AM39 °FClear.5 mph75%29.95 "Hg10 mi
4:00 AM39 °FPassing clouds.5 mph75%29.95 "HgN/A
3:30 AM39 °FClear.1 mph75%29.95 "Hg10 mi
3:00 AM39 °FClear.6 mph70%29.98 "Hg10 mi
1:30 AM39 °FClear.6 mph75%29.98 "Hg10 mi
1:00 AM41 °FClear.6 mph70%29.98 "Hg10 mi
12:30 AM41 °FClear.6 mph66%29.98 "Hg10 mi
12:00 AM43 °FClear.5 mph66%29.98 "Hg10 mi
11:30 PM
Sat, Mar 28
43 °FClear.3 mph66%29.98 "Hg10 mi
11:00 PM41 °FClear.8 mph70%30.01 "Hg10 mi
10:30 PM41 °FClear.6 mph66%30.01 "Hg10 mi
10:00 PM45 °FClear.6 mph61%30.01 "Hg10 mi
9:30 PM45 °FClear.9 mph57%30.04 "Hg10 mi
9:00 PM45 °FClear.10 mph57%30.04 "Hg10 mi
8:30 PM46 °FClear.9 mph53%30.04 "Hg10 mi
8:00 PM46 °FClear.12 mph53%30.04 "Hg10 mi
7:30 PM48 °FClear.13 mph50%30.04 "Hg10 mi
7:00 PM48 °FClear.13 mph50%30.04 "Hg10 mi
6:30 PM48 °FClear.13 mph50%30.04 "Hg10 mi
6:00 PM48 °FScattered clouds.13 mph54%30.04 "HgN/A
5:30 PM50 °FScattered clouds.18 mph47%30.04 "HgN/A
5:00 PM50 °FPartly sunny.16 mph50%30.04 "HgN/A
4:30 PM50 °FScattered clouds.20 mph47%30.04 "HgN/A
4:00 PM50 °FScattered clouds.25 mph47%30.04 "HgN/A
3:30 PM50 °FScattered clouds.22 mph47%30.04 "HgN/A
3:00 PM50 °FScattered clouds.23 mph47%30.04 "HgN/A
2:30 PM52 °FScattered clouds.28 mph47%30.04 "HgN/A
2:00 PM50 °FPartly sunny.22 mph50%30.04 "HgN/A
1:30 PM50 °FScattered clouds.23 mph50%30.04 "HgN/A
1:00 PM50 °FPartly sunny.22 mph50%30.07 "HgN/A
12:30 PM50 °FPartly sunny.20 mph50%30.07 "HgN/A
12:00 PM48 °FPartly sunny.23 mph54%30.07 "HgN/A
11:30 AM48 °FPartly sunny.20 mph58%30.07 "HgN/A
11:00 AM50 °FPartly sunny.18 mph54%30.07 "HgN/A
10:30 AM48 °FPartly sunny.22 mph58%30.09 "HgN/A
10:00 AM48 °FPartly sunny.22 mph58%30.07 "HgN/A
9:30 AM48 °FPartly sunny.24 mph58%30.07 "HgN/A
9:00 AM48 °FPartly sunny.21 mph58%30.07 "HgN/A
Weather by CustomWeather, © 2015

See weather overviewHow to use our weather pages